Flagstaff, AZ

10:14 AM MST on February 10, 2016 (GMT -0700)
Flagstaff Pulliam

Weather History for KFLG - June, 2014

Change the Weather History Date:

Monday, June 2, 2014

  Actual Average Record
Temperature  
Mean Temperature 60 °F 56 °F  
Max Temperature 83 °F 74 °F 86 °F (1977)
Min Temperature 37 °F 38 °F 22 °F (1955)
Degree Days  
Heating Degree Days 5 9  
Month to date heating degree days 11 19  
Since 1 July heating degree days 6430 6792  
Cooling Degree Days 0 0  
Month to date cooling degree days 0 0  
Year to date cooling degree days 0 0  
Growing Degree Days 10 (Base 50)    
Moisture  
Dew Point 16 °F    
Average Humidity 21    
Maximum Humidity 33    
Minimum Humidity 9    
Precipitation  
Precipitation 0.00 in 0.02 in 0.91 in (1999)
Month to date precipitation 0.00 0.03  
Year to date precipitation 3.21 8.14  
Snow  
Snow 0.00 in 0.00 in T in (1992)
Month to date snowfall 0.0 0.0  
Since 1 July snowfall 44.4 101.7  
Snow Depth 0.00 in    
Sea Level Pressure  
Sea Level Pressure 29.89 in    
Wind  
Wind Speed 10 mph (SW)    
Max Wind Speed 28 mph    
Max Gust Speed 35 mph    
Visibility 10 miles    
Events      
T = Trace of Precipitation, MM = Missing Value Source: NWS Daily Summary

Daily Weather History Graph

Daily Weather History Graph

Search for Another Location

Airport or City:

Trip Planner

Search our weather history database for the weather conditions in past years. The results will help you decide how hot, cold, wet, or windy it might be!

Date:

Astronomy

Jun. 02, 2014 Rise Set
Actual Time 5:13 AM MST 7:36 PM MST
Civil Twilight 4:43 AM MST 8:05 PM MST
Nautical Twilight 4:07 AM MST 8:41 PM MST
Astronomical Twilight 3:28 AM MST 9:21 PM MST
Moon 9:38 AM MST (6/2) 11:14 PM MST (6/2)
Length of Visible Light 15h 21m
Length of Day
14h 23m
Waxing Crescent, 22% of the Moon is Illuminated
Jun 2
Waxing Crescent
Jun 5
First Quarter
Jun 12
Full
Jun 19
Last Quarter
Jun 27
New

Hourly Weather History & Observations

Time (MST) Temp. Dew Point Humidity Pressure Visibility Wind Dir Wind Speed Gust Speed Precip Events Conditions
12:57 AM 44.1 °F 10.0 °F 25% 29.91 in 10.0 mi Calm Calm - N/A   Clear
1:57 AM 39.9 °F 10.0 °F 29% 29.91 in 10.0 mi Calm Calm - N/A   Clear
2:57 AM 39.0 °F 10.0 °F 30% 29.91 in 10.0 mi Calm Calm - N/A   Clear
3:57 AM 39.9 °F 10.0 °F 29% 29.89 in 10.0 mi Calm Calm - N/A   Clear
4:57 AM 37.9 °F 9.0 °F 30% 29.92 in 10.0 mi Calm Calm - N/A   Clear
5:57 AM 39.9 °F 12.0 °F 32% 29.94 in 10.0 mi Calm Calm - N/A   Clear
6:57 AM 53.1 °F 18.0 °F 25% 29.92 in 10.0 mi Calm Calm - N/A   Clear
7:57 AM 66.0 °F 14.0 °F 13% 29.90 in 10.0 mi SW 3.5 mph - N/A   Clear
8:57 AM 71.1 °F 17.1 °F 13% 29.89 in 10.0 mi SW 5.8 mph - N/A   Clear
10:57 AM 75.9 °F 16.0 °F 10% 29.93 in 10.0 mi SSW 9.2 mph 17.3 mph N/A   Clear
11:57 AM 79.0 °F 15.1 °F 9% 29.90 in 10.0 mi SSW 16.1 mph 20.7 mph N/A   Clear
12:57 PM 81.0 °F 17.1 °F 9% 29.90 in 10.0 mi SW 18.4 mph 24.2 mph N/A   Clear
1:57 PM 81.0 °F 17.1 °F 9% 29.89 in 10.0 mi SW 13.8 mph 26.5 mph N/A   Clear
2:57 PM 81.0 °F 17.1 °F 9% 29.89 in 10.0 mi South 10.4 mph 27.6 mph N/A   Clear
3:57 PM 82.0 °F 17.1 °F 9% 29.88 in 10.0 mi SW 19.6 mph 27.6 mph N/A   Clear
4:57 PM 82.0 °F 18.0 °F 9% 29.86 in 10.0 mi SW 21.9 mph 31.1 mph N/A   Clear
5:57 PM 78.1 °F 16.0 °F 10% 29.88 in 10.0 mi SW 18.4 mph 31.1 mph N/A   Clear
6:57 PM 75.0 °F 19.0 °F 12% 29.89 in 10.0 mi SSW 15.0 mph 31.1 mph N/A   Clear
7:57 PM 71.1 °F 19.0 °F 14% 29.86 in 10.0 mi SSW 15.0 mph - N/A   Clear
8:57 PM 69.1 °F 19.0 °F 15% 29.82 in 10.0 mi SSW 15.0 mph - N/A   Clear
9:57 PM 66.2 °F 19.4 °F 17% 30.14 in 10.0 mi SW 13.8 mph - N/A   Clear
10:57 PM 66.0 °F 19.0 °F 17% 29.78 in 10.0 mi SW 17.3 mph - N/A   Clear
11:57 PM 66.0 °F 19.0 °F 17% 29.76 in 10.0 mi SW 18.4 mph - N/A   Clear